Weather Roundup
Issued by NWS Springfield, MO

Home | Current Version | Previous Version | Text Only | Print | Product List | Glossary On
Versions: 1 2 3 4 5 6 7 8 9 10 11 12 13 14 15 16 17 18 19 20 21 22 23 24 25 26 27 28 29 30 31 32 33 34 35 36 37 38 39 40 41 42 43 44 45 46 47 48 49 50
000
NZUS99 KSGF 281959
HRRSGF

HOURLY WEATHER
NATIONAL WEATHER SERVICE SPRINGFIELD MO
200 PM CST WED JAN 28 2015

......SGF CWA......

CITY           SKY/WX    TMP DP  RH WIND       PRES   REMARKS
SPRINGFIELD    FAIR      62  36  37 S23G30    29.92F
JOPLIN         FAIR      75  37  25 S24G36    29.87F
WEST PLAINS    FAIR      51  32  48 SE13      30.07F
ROLLA          FAIR      54  35  48 S21       29.96F
OSAGE BEACH    FAIR      61  36  39 S16G24    29.93F
BRANSON        MOSUNNY   68  37  32 SE10      29.99F

......SURROUNDING SGF CWA......

CITY           SKY/WX    TMP DP  RH WIND       PRES   REMARKS
CHANUTE        FAIR      73  39  29 S22G30    29.80F
PARSONS        FAIR      73  40  30 S18G31    29.83F
COFFEYVILLE    FAIR      72  40  31 S23G30    29.84F
EMPORIA        FAIR      72  37  28 SW24G31   29.76F
SILOAM SPRINGS FAIR     N/A N/A N/A S21G35    29.96F
HARRISON AR    FAIR      67  39  35 SE14      30.01F
NEAR YELLVILLE FAIR      63  36  36 S12       30.04F

......KANSAS AND MISSOURI......

CITY           SKY/WX    TMP DP  RH WIND       PRES   REMARKS
KANSAS CTY INT CLOUDY    72  38  29 S24       29.74F
DOWNTOWN KC    FAIR      75  36  24 S18G28    29.75F
COLUMBIA       FAIR      58  36  43 S18       29.91F
SEDALIA        FAIR      68  38  33 S24G30    29.86F
ST JOSEPH      FAIR      70  39  32 S14G23    29.72F
ST LOUIS       PTSUNNY   48  30  49 S17G25    30.05F
SPIRIT OF STL  FAIR      50  30  46 S12G21    30.02F
KIRKSVILLE     FAIR      48  37  65 SE20      29.86F
WICHITA        PTSUNNY   70  38  31 SW17      29.78F
TOPEKA         FAIR      75  37  25 S13G23    29.72F
OLATHE         FAIR      72  38  29 S18G29    29.76F

......TENNESSEE......

CITY           SKY/WX    TMP DP  RH WIND       PRES   REMARKS
MEMPHIS        FAIR      58  30  34 SE7       30.18F
NASHVILLE      FAIR      49  24  37 SE8       30.25F

......ARKANSAS.......

CITY           SKY/WX    TMP DP  RH WIND       PRES   REMARKS
FAYETTEVILLE   FAIR      67  40  37 S24G31    29.98F
FT SMITH       FAIR      65  41  41 NE15      30.00F
LITTLE ROCK    FAIR      62  36  37 SE9       30.13F

......OKLAHOMA.......

CITY           SKY/WX    TMP DP  RH WIND       PRES   REMARKS
TULSA          CLOUDY    78  37  22 S24G30    29.86F
PONCA CITY     FAIR      78  38  23 SW20G30   29.82F
MCALESTER      FAIR      75  41  29 S15G23    29.96F
OKLAHOMA CITY  PTSUNNY   78  41  26 SW21G26   29.90F

......IOWA............

CITY           SKY/WX    TMP DP  RH WIND       PRES   REMARKS
DES MOINES     CLOUDY    48  35  60 S20       29.77F
QUAD CITIES    FAIR      35  27  72 SE14      29.98F WCI  26

......ILLINOIS........

CITY           SKY/WX    TMP DP  RH WIND       PRES   REMARKS
QUINCY         FAIR      43  31  62 SE14G24   29.94F
CHICAGO        CLOUDY    33  19  56 SE14      30.11F WCI  23



USA.gov is the U.S. government's official web portal to all federal, state and local government web resources and services.